This is the latest recevied weather packets stored in our database for station/object N0HEQ. If no packets are shown the sender has not sent any weather packets the latest 1 day(s).
| Time | Temp. | Humidity | Pressure | Rain* | Wind** | Luminosity | Snow |
|---|---|---|---|---|---|---|---|
| 1836274622 | 16.11° C | 53% | 1023.1 hPa | 0 mm | 0 m/s | 0 W/m² | - |
| 1836274475 | 15.56° C | 49% | 1023.3 hPa | 0 mm | 0.45 m/s, 57° | 0 W/m² | - |
| 1836274320 | 16.11° C | 50% | 1023.2 hPa | 0 mm | 0.45 m/s, 95° | 0 W/m² | - |
| 1836274173 | 16.11° C | 52% | 1023.3 hPa | 0 mm | 0 m/s | 0 W/m² | - |
| 1836274019 | 16.11° C | 50% | 1023.2 hPa | 0 mm | 0 m/s | 0 W/m² | - |
| 1778040156 | 0° C | 98% | 1018.7 hPa | 0 mm | 0.89 m/s, 93° | 0 W/m² | - |
| 1778039853 | 0° C | 98% | 1018.7 hPa | 0 mm | 0.45 m/s, 100° | 0 W/m² | - |
| 1778039550 | 0° C | 98% | 1018.6 hPa | 0 mm | 0 m/s | 0 W/m² | - |
| 1778039246 | 0° C | 98% | 1018.6 hPa | 0 mm | 0.45 m/s, 65° | 0 W/m² | - |
| 1778038944 | 0° C | 98% | 1018.2 hPa | 0 mm | 0.89 m/s, 75° | 0 W/m² | - |
| 1778038641 | 0° C | 98% | 1018.2 hPa | 0 mm | 0.45 m/s, 123° | 0 W/m² | - |
| 1778038338 | 0° C | 98% | 1018.1 hPa | 0 mm | 0.89 m/s, 70° | 0 W/m² | - |
| 1778038035 | 0° C | 98% | 1018 hPa | 0 mm | 0 m/s | 0 W/m² | - |
| 1778037732 | 0° C | 98% | 1018 hPa | 0 mm | 0.89 m/s, 93° | 0 W/m² | - |
| 1778037428 | 0° C | 98% | 1017.9 hPa | 0 mm | 0 m/s | 0 W/m² | - |
| 1778037126 | 0° C | 98% | 1018 hPa | 0 mm | 1.34 m/s, 68° | 0 W/m² | - |
| 1778036824 | 0° C | 98% | 1017.9 hPa | 0 mm | 0.45 m/s, 99° | 0 W/m² | - |
| 1778036521 | 0° C | 98% | 1017.7 hPa | 0 mm | 0.45 m/s, 117° | 0 W/m² | - |
| 1778036218 | 0° C | 98% | 1017.7 hPa | 0 mm | 0 m/s | 0 W/m² | - |
| 1778035914 | 0° C | 98% | 1017.4 hPa | 0 mm | 0.89 m/s, 77° | 0 W/m² | - |
| 1778035612 | 0° C | 98% | 1017.6 hPa | 0 mm | 0 m/s | 0 W/m² | - |
| 1778035308 | 0° C | 98% | 1017.6 hPa | 0 mm | 0 m/s | 0 W/m² | - |
| 1778035004 | 0° C | 98% | 1017.5 hPa | 0 mm | 0.89 m/s, 83° | 0 W/m² | - |
| 1778034701 | 0° C | 98% | 1017.3 hPa | 0 mm | 0 m/s | 0 W/m² | - |
| 1778034399 | 0° C | 98% | 1017.2 hPa | 0 mm | 0 m/s | 0 W/m² | - |
* Rain latest hour (hover to see other rain measurements)
** Current wind speed in m/s (hover to see current wind gust speed)